TimeCET,TemperatureF,Dew PointF,Humidity,Sea Level PressureIn,VisibilityMPH,Wind Direction,Wind SpeedMPH,Gust SpeedMPH,PrecipitationIn,Events,Conditions,WindDirDegrees,DateUTC
12:15 AM,53.6,46.4,77,30.15,6.2,Calm,Calm,-,N/A,,Partly Cloudy,0,2012-11-25 23:15:00
12:45 AM,53.6,46.4,77,30.12,6.2,Calm,Calm,-,N/A,,Partly Cloudy,0,2012-11-25 23:45:00
12:55 AM,53.6,46.4,77,30.12,6.2,Calm,Calm,-,N/A,,Partly Cloudy,0,2012-11-25 23:55:00
1:00 AM,53,46,68,30.15,9,Calm,Calm,,,,Scattered Clouds,,2012-11-26 00:00:00
1:15 AM,51.8,44.6,76,30.12,6.2,NW,2.3,-,N/A,,Partly Cloudy,320,2012-11-26 00:15:00
1:45 AM,50.0,44.6,82,30.12,6.2,NW,2.3,-,N/A,,Partly Cloudy,310,2012-11-26 00:45:00
1:55 AM,50.0,44.6,82,30.12,6.2,NW,2.3,-,N/A,,Partly Cloudy,310,2012-11-26 00:55:00
2:15 AM,50.0,42.8,76,30.12,6.2,NW,2.3,-,N/A,,Partly Cloudy,310,2012-11-26 01:15:00
2:45 AM,48.2,42.8,82,30.12,6.2,NW,3.5,-,N/A,,Partly Cloudy,310,2012-11-26 01:45:00
2:55 AM,48.2,42.8,82,30.12,6.2,NW,3.5,-,N/A,,Partly Cloudy,310,2012-11-26 01:55:00
3:15 AM,48.2,41.0,76,30.12,6.2,NW,2.3,-,N/A,,Partly Cloudy,310,2012-11-26 02:15:00
3:45 AM,48.2,41.0,76,30.09,6.2,NW,4.6,-,N/A,,Scattered Clouds,310,2012-11-26 02:45:00
3:55 AM,48.2,41.0,76,30.09,6.2,NW,4.6,-,N/A,,Scattered Clouds,310,2012-11-26 02:55:00
4:00 AM,48,41,70,30.12,9,NW,4.6,,,,Partly Cloudy,310,2012-11-26 03:00:00
4:15 AM,48.2,41.0,76,30.09,6.2,NW,5.8,-,N/A,,Scattered Clouds,310,2012-11-26 03:15:00
4:45 AM,46.4,41.0,81,30.09,6.2,NW,2.3,-,N/A,,Scattered Clouds,320,2012-11-26 03:45:00
4:55 AM,46.4,41.0,81,30.09,6.2,NW,2.3,-,N/A,,Scattered Clouds,320,2012-11-26 03:55:00
5:15 AM,46.4,39.2,76,30.09,6.2,NW,3.5,-,N/A,,Scattered Clouds,320,2012-11-26 04:15:00
5:45 AM,46.4,39.2,76,30.09,6.2,NW,4.6,-,N/A,,Scattered Clouds,310,2012-11-26 04:45:00
5:55 AM,46.4,39.2,76,30.09,6.2,NW,4.6,-,N/A,,Scattered Clouds,310,2012-11-26 04:55:00
6:15 AM,46.4,39.2,76,30.09,6.2,NW,4.6,-,N/A,,Scattered Clouds,310,2012-11-26 05:15:00
6:45 AM,46.4,39.2,76,30.09,6.2,NW,6.9,-,N/A,,Scattered Clouds,310,2012-11-26 05:45:00
6:55 AM,46.4,39.2,76,30.09,6.2,NW,6.9,-,N/A,,Scattered Clouds,310,2012-11-26 05:55:00
7:00 AM,46,40,71,30.11,9,NW,6.9,,,,Partly Cloudy,310,2012-11-26 06:00:00
7:15 AM,46.4,39.2,76,30.09,6.2,NW,5.8,-,N/A,,Scattered Clouds,310,2012-11-26 06:15:00
7:45 AM,46.4,39.2,76,30.09,6.2,NW,5.8,-,N/A,,Scattered Clouds,310,2012-11-26 06:45:00
7:55 AM,46.4,39.2,76,30.09,6.2,NW,5.8,-,N/A,,Scattered Clouds,310,2012-11-26 06:55:00
8:15 AM,46.4,39.2,76,30.09,6.2,NW,3.5,-,N/A,,Scattered Clouds,310,2012-11-26 07:15:00
8:45 AM,48.2,41.0,76,30.09,6.2,NW,3.5,-,N/A,,Scattered Clouds,310,2012-11-26 07:45:00
8:55 AM,48.2,41.0,76,30.09,6.2,NW,3.5,-,N/A,,Scattered Clouds,310,2012-11-26 07:55:00
9:15 AM,50.0,46.4,87,30.09,6.2,WNW,2.3,-,N/A,,Scattered Clouds,300,2012-11-26 08:15:00
9:45 AM,53.6,50.0,88,30.09,6.2,WNW,4.6,-,N/A,,Scattered Clouds,300,2012-11-26 08:45:00
9:55 AM,53.6,50.0,88,30.09,6.2,WNW,4.6,-,N/A,,Scattered Clouds,300,2012-11-26 08:55:00
10:00 AM,53,49,82,30.11,7,WNW,4.6,,,,Partly Cloudy,300,2012-11-26 09:00:00
10:15 AM,55.4,51.8,88,30.09,6.2,WNW,1.2,-,N/A,,Scattered Clouds,300,2012-11-26 09:15:00
10:45 AM,57.2,53.6,88,30.06,6.2,SSW,1.2,-,N/A,,Scattered Clouds,200,2012-11-26 09:45:00
10:55 AM,57.2,53.6,88,30.06,6.2,SSW,1.2,-,N/A,,Scattered Clouds,200,2012-11-26 09:55:00
11:15 AM,60.8,57.2,88,30.06,6.2,SSE,2.3,-,N/A,,Scattered Clouds,160,2012-11-26 10:15:00
11:45 AM,62.6,59.0,88,30.06,6.2,South,4.6,-,N/A,,Scattered Clouds,170,2012-11-26 10:45:00
11:55 AM,62.6,59.0,88,30.06,6.2,South,4.6,-,N/A,,Scattered Clouds,170,2012-11-26 10:55:00
12:15 PM,68.0,60.8,78,30.04,6.2,SE,12.7,-,N/A,,Scattered Clouds,130,2012-11-26 11:15:00
12:45 PM,68.0,60.8,78,30.04,6.2,SE,11.5,-,N/A,,Scattered Clouds,130,2012-11-26 11:45:00
12:55 PM,68.0,60.8,78,30.04,6.2,SE,11.5,-,N/A,,Scattered Clouds,130,2012-11-26 11:55:00
1:00 PM,68,60,68,30.04,9,SE,11.5,,,,Partly Cloudy,130,2012-11-26 12:00:00
1:15 PM,68.0,59.0,73,30.01,6.2,SE,12.7,-,N/A,,Scattered Clouds,130,2012-11-26 12:15:00
1:45 PM,68.0,57.2,68,30.01,6.2,SE,11.5,-,N/A,,Scattered Clouds,130,2012-11-26 12:45:00
1:55 PM,68.0,57.2,68,30.01,6.2,SE,11.5,-,N/A,,Scattered Clouds,130,2012-11-26 12:55:00
2:15 PM,68.0,55.4,64,30.01,6.2,SE,11.5,-,N/A,,Scattered Clouds,130,2012-11-26 13:15:00
2:45 PM,68.0,55.4,64,29.98,6.2,ESE,11.5,-,N/A,,Scattered Clouds,120,2012-11-26 13:45:00
2:55 PM,68.0,55.4,64,29.98,6.2,ESE,11.5,-,N/A,,Scattered Clouds,120,2012-11-26 13:55:00
3:15 PM,68.0,55.4,64,29.98,6.2,SE,11.5,-,N/A,,Scattered Clouds,130,2012-11-26 14:15:00
3:45 PM,66.2,55.4,68,29.98,6.2,SE,12.7,-,N/A,,Scattered Clouds,130,2012-11-26 14:45:00
3:55 PM,66.2,55.4,68,29.98,6.2,SE,12.7,-,N/A,,Scattered Clouds,130,2012-11-26 14:55:00
4:00 PM,66,55,58,29.99,9,SE,12.7,,,,Partly Cloudy,130,2012-11-26 15:00:00
4:15 PM,66.2,55.4,68,29.98,6.2,SE,12.7,-,N/A,,Scattered Clouds,130,2012-11-26 15:15:00
4:45 PM,64.4,55.4,73,29.98,6.2,SE,11.5,-,N/A,,Scattered Clouds,130,2012-11-26 15:45:00
4:55 PM,64.4,55.4,73,29.98,6.2,SE,11.5,-,N/A,,Scattered Clouds,130,2012-11-26 15:55:00
5:15 PM,64.4,55.4,73,29.95,6.2,SE,11.5,-,N/A,,Scattered Clouds,130,2012-11-26 16:15:00
5:45 PM,64.4,55.4,73,29.98,6.2,SE,10.4,-,N/A,,Scattered Clouds,130,2012-11-26 16:45:00
5:55 PM,64.4,55.4,73,29.98,6.2,SE,10.4,-,N/A,,Scattered Clouds,130,2012-11-26 16:55:00
6:15 PM,64.4,55.4,73,29.95,6.2,ESE,11.5,-,N/A,,Scattered Clouds,120,2012-11-26 17:15:00
6:45 PM,64.4,55.4,73,29.95,6.2,SE,9.2,-,N/A,,Scattered Clouds,140,2012-11-26 17:45:00
6:55 PM,64.4,55.4,73,29.95,6.2,SE,9.2,-,N/A,,Scattered Clouds,140,2012-11-26 17:55:00
7:00 PM,64,56,69,29.97,9,SE,9.2,,,,Mostly Cloudy,140,2012-11-26 18:00:00
7:15 PM,64.4,55.4,73,29.95,6.2,SE,9.2,-,N/A,,Scattered Clouds,140,2012-11-26 18:15:00
7:45 PM,62.6,55.4,77,29.95,6.2,SE,8.1,-,N/A,,Scattered Clouds,140,2012-11-26 18:45:00
7:55 PM,62.6,55.4,77,29.95,6.2,SE,8.1,-,N/A,,Scattered Clouds,140,2012-11-26 18:55:00
8:15 PM,62.6,55.4,77,29.95,6.2,SE,10.4,-,N/A,,Scattered Clouds,140,2012-11-26 19:15:00
8:45 PM,62.6,55.4,77,29.95,6.2,SE,9.2,-,N/A,,Scattered Clouds,140,2012-11-26 19:45:00
8:55 PM,62.6,55.4,77,29.95,6.2,SE,9.2,-,N/A,,Scattered Clouds,140,2012-11-26 19:55:00
9:15 PM,62.6,59.0,88,29.95,6.2,ESE,9.2,-,N/A,,Scattered Clouds,120,2012-11-26 20:15:00
9:45 PM,62.6,57.2,82,29.92,6.2,ESE,10.4,-,N/A,,Scattered Clouds,120,2012-11-26 20:45:00
9:55 PM,62.6,57.2,82,29.92,6.2,ESE,10.4,-,N/A,,Scattered Clouds,120,2012-11-26 20:55:00
10:00 PM,62,58,81,29.94,7,ESE,10.4,,,,Partly Cloudy,120,2012-11-26 21:00:00
10:15 PM,60.8,55.4,82,29.92,6.2,East,10.4,-,N/A,,Scattered Clouds,100,2012-11-26 21:15:00
10:45 PM,60.8,55.4,82,29.92,6.2,East,5.8,-,N/A,,Scattered Clouds,90,2012-11-26 21:45:00
10:55 PM,60.8,55.4,82,29.92,6.2,East,5.8,-,N/A,,Mostly Cloudy,90,2012-11-26 21:55:00
11:15 PM,60.8,53.6,77,29.92,6.2,East,5.8,-,N/A,,Scattered Clouds,100,2012-11-26 22:15:00
11:45 PM,59.0,53.6,82,29.92,6.2,Calm,Calm,-,N/A,,Scattered Clouds,0,2012-11-26 22:45:00
11:55 PM,59.0,53.6,82,29.92,6.2,Calm,Calm,-,N/A,,Scattered Clouds,0,2012-11-26 22:55:00